GW2284 Weather Reports


time (UTC)temp
C
wind
direction
speed
KPH
gust
KPH
rain 1hr
cm
rain 24hr
cm
rain mn
cm
humidity
%
barometer
mb
20260506224509 8 45 0.0 6.4 0.00 0.71 0.00 90 1010.5
20260506223005 8 53 0.0 6.4 0.00 0.71 0.00 90 1010.5
20260506221500 8 53 0.0 3.2 0.00 0.71 0.00 90 1010.3
20260506220100 9 53 1.6 4.8 0.00 0.71 0.00 89 1010.1
20260506214556 9 49 0.0 3.2 0.00 0.71 0.71 90 1010.0
20260506213111 10 47 3.2 6.4 0.00 0.71 0.71 90 1010.0
20260506211549 10 63 0.0 6.4 0.00 0.71 0.71 89 1009.9
20260506210049 10 55 3.2 4.8 0.00 0.71 0.71 89 1009.8
20260506204547 10 59 0.0 4.8 0.00 0.71 0.71 89 1009.7
20260506203047 11 57 0.0 4.8 0.00 0.71 0.71 89 1009.5
20260506201543 11 56 1.6 4.8 0.00 0.71 0.71 88 1009.2
20260506200043 11 55 0.0 6.4 0.00 0.71 0.71 87 1008.9
20260506194546 12 73 1.6 4.8 0.00 0.71 0.71 87 1008.5
20260506193042 12 52 0.0 6.4 0.00 0.71 0.71 87 1008.1
20260506191541 12 80 1.6 6.4 0.00 0.71 0.71 86 1007.8
20260506190038 13 157 0.0 6.4 0.00 0.71 0.71 85 1007.4
20260506184547 13 180 3.2 6.4 0.00 0.71 0.71 83 1007.0
20260506183051 13 133 0.0 4.8 0.00 0.71 0.71 82 1006.7
20260506181512 14 159 0.0 8.0 0.00 0.71 0.71 78 1006.3
20260506180005 15 74 1.6 3.2 0.00 0.71 0.71 80 1005.9
20260506174502 15 60 1.6 4.8 0.00 0.71 0.71 78 1005.7
20260506173002 16 288 1.6 4.8 0.00 0.71 0.71 73 1005.6
20260506171605 16 223 0.0 3.2 0.00 0.71 0.71 71 1005.5
20260506170100 16 233 4.8 11.3 0.00 0.71 0.71 71 1005.5
20260506164613 17 248 6.4 12.9 0.00 0.71 0.71 68 1005.3
20260506163058 17 143 1.6 9.7 0.00 0.71 0.71 67 1005.2
20260506161555 17 211 1.6 6.4 0.00 0.71 0.71 71 1005.3
20260506160100 16 118 0.0 6.4 0.00 0.71 0.71 68 1005.4
20260506154555 16 146 1.6 11.3 0.00 0.71 0.71 71 1005.4
20260506153110 16 101 3.2 11.3 0.00 0.71 0.71 71 1005.4
20260506151551 16 58 3.2 9.7 0.00 0.71 0.71 71 1005.6
20260506150058 17 132 1.6 9.7 0.00 0.71 0.71 65 1005.4
20260506144619 17 115 4.8 12.9 0.00 0.71 0.71 68 1005.5
20260506143022 17 155 6.4 16.1 0.00 0.71 0.71 67 1005.4
20260506141514 18 107 8.0 14.5 0.00 0.71 0.71 69 1005.5
20260506140016 17 132 3.2 12.9 0.00 0.71 0.71 67 1005.6
20260506134511 17 109 3.2 11.3 0.00 0.71 0.71 70 1005.9
20260506133012 18 180 4.8 11.3 0.00 0.71 0.71 68 1006.0
20260506131546 17 118 3.2 19.3 0.00 0.71 0.71 71 1006.0
20260506130037 16 238 4.8 16.1 0.00 0.71 0.71 73 1005.9
20260506124534 17 224 4.8 11.3 0.00 0.71 0.71 73 1005.9
20260506123034 16 124 4.8 19.3 0.00 0.71 0.71 75 1006.0
20260506121533 16 90 4.8 17.7 0.00 0.71 0.71 74 1005.8
20260506120038 16 101 4.8 16.1 0.00 0.71 0.71 74 1005.8
20260506114609 16 116 4.8 11.3 0.00 0.71 0.71 73 1005.9
20260506113059 15 83 4.8 11.3 0.00 0.71 0.71 77 1006.0
20260506111528 16 127 1.6 16.1 0.00 0.71 0.71 78 1006.0
20260506110025 15 90 4.8 12.9 0.00 0.71 0.71 80 1006.1
20260506104518 15 127 3.2 12.9 0.00 0.71 0.71 80 1006.3
20260506103017 15 144 3.2 9.7 0.03 0.71 0.71 81 1006.6
20260506101517 14 215 3.2 9.7 0.03 0.71 0.71 81 1006.4
20260506100016 15 241 3.2 14.5 0.03 0.71 0.71 79 1006.5
20260506094511 15 174 1.6 11.3 0.03 0.71 0.71 79 1006.6
20260506093009 14 143 4.8 12.9 0.00 0.71 0.71 79 1006.7
20260506091505 14 139 4.8 14.5 0.00 0.71 0.71 84 1006.7
20260506090107 13 84 3.2 12.9 0.00 0.71 0.71 85 1006.8
20260506084529 13 89 1.6 9.7 0.00 0.71 0.71 82 1006.8
20260506083013 13 29 1.6 8.0 0.00 0.71 0.71 79 1006.8
20260506081509 13 322 4.8 9.7 0.00 0.71 0.71 82 1006.9
20260506073004 11 227 3.2 9.7 0.00 0.71 0.71 91 1007.3
20260506071606 10 313 1.6 4.8 0.00 0.71 0.71 92 1007.3
20260506061513 10 109 0.0 1.6 0.10 0.71 0.71 92 1007.9
20260506044524 10 140 0.0 6.4 0.38 0.61 0.53 92 1008.0
20260506043101 10 123 0.0 3.2 0.33 0.48 0.41 92 1007.9
20260506041602 10 124 1.6 4.8 0.23 0.33 0.25 92 1008.1
20260506040057 10 105 3.2 6.4 0.15 0.28 0.20 92 1008.1
20260506034520 10 164 1.6 4.8 0.13 0.53 0.15 92 1008.1
20260506033009 10 165 0.0 0.0 0.00 0.43 0.05 92 1008.3
20260506031509 10 167 0.0 0.0 0.00 0.43 0.05 92 1008.4
20260506030017 10 167 0.0 0.0 0.00 0.69 0.05 92 1008.6
20260506024553 10 167 0.0 0.0 0.00 0.69 0.05 92 1009.0
20260506023030 10 167 0.0 3.2 0.00 0.69 0.05 92 1009.1
20260506021528 10 165 3.2 4.8 0.00 0.69 0.05 92 1009.2
20260506020059 10 98 0.0 1.6 0.00 0.69 0.05 92 1009.0
20260506014513 10 98 0.0 3.2 0.03 0.71 0.05 92 1009.4
20260506013013 10 98 0.0 3.2 0.03 0.71 0.05 92 1009.4
20260506011506 10 95 1.6 3.2 0.05 0.71 0.05 92 1009.4
20260506010040 10 95 0.0 4.8 0.05 0.76 0.05 92 1009.8
20260506004524 10 96 1.6 3.2 0.03 0.71 0.03 92 1010.2
20260506003018 10 96 0.0 3.2 0.03 0.71 0.03 92 1010.5
20260506001513 10 95 0.0 1.6 0.03 0.71 0.03 92 1010.7
20260506000009 10 95 0.0 1.6 0.00 0.71 0.00 92 1011.0
20260505234505 10 95 0.0 4.8 0.00 0.71 0.00 92 1011.1
20260505233058 10 95 0.0 3.2 0.00 0.71 0.00 92 1011.2
20260505231554 10 95 0.0 3.2 0.00 0.71 0.00 92 1011.3
20260505230101 10 94 0.0 4.8 0.00 0.71 0.00 92 1011.5